Time,TemperatureF,DewpointF,PressureIn,WindDirection,WindDirectionDegrees,WindSpeedMPH,WindSpeedGustMPH,Humidity,HourlyPrecipIn,Conditions,Clouds,dailyrainin,SoftwareType,DateUTC
2013-03-12 00:03:00,26.1,15.9,29.70,West,263,2.3,2.3,65,0.00,RA,,0.00,WeatherDisplay:10.37,2013-03-12 05:03:00,
2013-03-12 00:08:00,26.1,15.9,29.70,West,262,3.5,3.5,65,0.00,RA,,0.00,WeatherDisplay:10.37,2013-03-12 05:08:00,
2013-03-12 00:13:00,26.2,16.1,29.70,NW,306,2.7,0.0,65,0.00,,,0.00,WeatherDisplay:10.37,2013-03-12 05:13:00,
2013-03-12 00:19:00,26.2,16.1,29.70,WNW,284,3.5,3.5,65,0.00,,,0.00,WeatherDisplay:10.37,2013-03-12 05:19:00,
2013-03-12 00:24:00,26.2,16.4,29.70,WNW,293,3.5,3.6,66,0.00,,,0.00,WeatherDisplay:10.37,2013-03-12 05:24:00,
2013-03-12 00:29:00,26.4,16.6,29.70,WSW,241,3.5,3.5,66,0.00,,,0.00,WeatherDisplay:10.37,2013-03-12 05:29:00,
2013-03-12 00:34:00,26.4,16.6,29.70,West,271,3.5,3.5,66,0.00,,,0.00,WeatherDisplay:10.37,2013-03-12 05:34:00,
2013-03-12 00:39:00,26.4,16.6,29.70,WNW,293,4.6,4.6,66,0.00,,,0.00,WeatherDisplay:10.37,2013-03-12 05:39:00,
2013-03-12 00:45:00,26.4,16.6,29.70,WNW,282,3.5,3.5,66,0.00,,,0.00,WeatherDisplay:10.37,2013-03-12 05:45:00,
2013-03-12 00:50:00,26.4,16.6,29.70,West,276,4.6,4.6,66,0.00,,,0.00,WeatherDisplay:10.37,2013-03-12 05:50:00,
2013-03-12 00:55:00,26.4,16.6,29.70,NW,313,4.6,4.6,66,0.00,,,0.00,WeatherDisplay:10.37,2013-03-12 05:55:00,
2013-03-12 01:00:00,26.4,16.6,29.70,West,273,5.8,5.8,66,0.00,,,0.00,WeatherDisplay:10.37,2013-03-12 06:00:00,
2013-03-12 01:05:00,26.4,16.6,29.70,WSW,243,3.5,3.5,66,0.00,,,0.00,WeatherDisplay:10.37,2013-03-12 06:05:00,
2013-03-12 01:11:00,26.2,16.4,29.70,WNW,297,5.8,5.8,66,0.00,,,0.00,WeatherDisplay:10.37,2013-03-12 06:11:00,
2013-03-12 01:16:00,26.2,16.4,29.70,WNW,290,5.8,5.8,66,0.00,,,0.00,WeatherDisplay:10.37,2013-03-12 06:16:00,
2013-03-12 01:21:00,26.1,16.6,29.70,WNW,288,5.8,5.8,67,0.00,,,0.00,WeatherDisplay:10.37,2013-03-12 06:21:00,
2013-03-12 01:26:00,25.9,16.4,29.70,WNW,284,4.6,4.6,67,0.00,,,0.00,WeatherDisplay:10.37,2013-03-12 06:26:00,
2013-03-12 01:32:00,25.7,16.3,29.70,West,280,3.5,3.5,67,0.00,,,0.00,WeatherDisplay:10.37,2013-03-12 06:32:00,
2013-03-12 01:37:00,25.5,16.1,29.70,West,273,5.8,5.8,67,0.00,,,0.00,WeatherDisplay:10.37,2013-03-12 06:37:00,
2013-03-12 01:42:00,25.3,15.9,29.70,West,275,4.6,4.6,67,0.00,,,0.00,WeatherDisplay:10.37,2013-03-12 06:42:00,
2013-03-12 01:47:00,25.2,15.7,29.70,WNW,286,4.6,4.6,67,0.00,,,0.00,WeatherDisplay:10.37,2013-03-12 06:47:00,
2013-03-12 01:52:00,25.0,15.6,29.70,West,277,5.4,5.4,67,0.00,,,0.00,WeatherDisplay:10.37,2013-03-12 06:52:00,
2013-03-12 01:57:00,25.0,15.9,29.70,West,281,4.6,4.6,68,0.00,,,0.00,WeatherDisplay:10.37,2013-03-12 06:57:00,
2013-03-12 02:02:00,25.0,15.9,29.70,West,259,4.6,4.6,68,0.00,,,0.00,WeatherDisplay:10.37,2013-03-12 07:02:00,
2013-03-12 02:07:00,24.8,15.7,29.70,West,279,3.5,3.6,68,0.00,,,0.00,WeatherDisplay:10.37,2013-03-12 07:07:00,
2013-03-12 02:13:00,24.6,15.6,29.70,West,279,3.5,4.0,68,0.00,,,0.00,WeatherDisplay:10.37,2013-03-12 07:13:00,
2013-03-12 02:18:00,24.4,15.4,29.70,WNW,293,5.8,5.8,68,0.00,,,0.00,WeatherDisplay:10.37,2013-03-12 07:18:00,
2013-03-12 02:23:00,24.4,15.4,29.70,WNW,294,3.5,3.5,68,0.00,,,0.00,WeatherDisplay:10.37,2013-03-12 07:23:00,
2013-03-12 02:28:00,24.4,15.7,29.70,WSW,245,4.6,4.6,69,0.00,,,0.00,WeatherDisplay:10.37,2013-03-12 07:28:00,
2013-03-12 02:34:00,24.3,15.5,29.70,WNW,283,5.8,5.8,69,0.00,,,0.00,WeatherDisplay:10.37,2013-03-12 07:34:00,
2013-03-12 02:39:00,24.3,15.5,29.70,WNW,287,3.5,3.5,69,0.00,,,0.00,WeatherDisplay:10.37,2013-03-12 07:39:00,
2013-03-12 02:44:00,24.1,15.4,29.70,WNW,286,5.8,5.8,69,0.00,,,0.00,WeatherDisplay:10.37,2013-03-12 07:44:00,
2013-03-12 02:49:00,23.9,15.2,29.70,West,270,3.5,3.6,69,0.00,,,0.00,WeatherDisplay:10.37,2013-03-12 07:49:00,
2013-03-12 02:54:00,23.7,15.0,29.70,WNW,289,5.8,5.8,69,0.00,,,0.00,WeatherDisplay:10.37,2013-03-12 07:54:00,
2013-03-12 03:00:00,23.7,15.0,29.70,West,276,3.6,3.6,69,0.00,,,0.00,WeatherDisplay:10.37,2013-03-12 08:00:00,
2013-03-12 03:05:00,23.7,15.0,29.70,West,268,4.6,4.6,69,0.00,,,0.00,WeatherDisplay:10.37,2013-03-12 08:05:00,
2013-03-12 03:10:00,23.7,15.0,29.70,West,264,3.5,3.5,69,0.00,,,0.00,WeatherDisplay:10.37,2013-03-12 08:10:00,
2013-03-12 03:15:00,23.9,15.2,29.70,WSW,251,5.8,5.8,69,0.00,,,0.00,WeatherDisplay:10.37,2013-03-12 08:15:00,
2013-03-12 03:20:00,23.9,15.2,29.73,WNW,295,3.5,3.6,69,0.00,,,0.00,WeatherDisplay:10.37,2013-03-12 08:20:00,
2013-03-12 03:26:00,24.1,15.7,29.73,West,280,3.5,3.5,70,0.00,,,0.00,WeatherDisplay:10.37,2013-03-12 08:26:00,
2013-03-12 03:31:00,24.1,15.7,29.73,WNW,296,3.5,3.6,70,0.00,,,0.00,WeatherDisplay:10.37,2013-03-12 08:31:00,
2013-03-12 03:36:00,24.1,15.7,29.70,West,268,3.5,3.5,70,0.00,,,0.00,WeatherDisplay:10.37,2013-03-12 08:36:00,
2013-03-12 03:41:00,24.1,15.7,29.70,West,267,4.6,4.6,70,0.00,,,0.00,WeatherDisplay:10.37,2013-03-12 08:41:00,
2013-03-12 03:46:00,24.1,15.7,29.70,West,264,3.5,3.5,70,0.00,,,0.00,WeatherDisplay:10.37,2013-03-12 08:46:00,
2013-03-12 03:52:00,23.9,15.5,29.70,WNW,284,3.5,3.5,70,0.00,,,0.00,WeatherDisplay:10.37,2013-03-12 08:52:00,
2013-03-12 03:57:00,23.7,15.4,29.70,WNW,290,3.5,3.5,70,0.00,,,0.00,WeatherDisplay:10.37,2013-03-12 08:57:00,
2013-03-12 04:02:00,23.5,14.9,29.70,WSW,258,3.6,3.6,69,0.00,,,0.00,WeatherDisplay:10.37,2013-03-12 09:02:00,
2013-03-12 04:07:00,23.4,14.7,29.70,West,264,3.5,3.5,69,0.00,,,0.00,WeatherDisplay:10.37,2013-03-12 09:07:00,
2013-03-12 04:12:00,23.2,14.5,29.70,WNW,290,3.5,0.0,69,0.00,,,0.00,WeatherDisplay:10.37,2013-03-12 09:12:00,
2013-03-12 04:17:00,23.0,14.3,29.70,West,278,3.5,0.0,69,0.00,,,0.00,WeatherDisplay:10.37,2013-03-12 09:17:00,
2013-03-12 04:22:00,22.8,14.2,29.70,West,262,3.6,0.0,69,0.00,,,0.00,WeatherDisplay:10.37,2013-03-12 09:22:00,
2013-03-12 04:27:00,22.6,14.0,29.70,WSW,252,3.5,3.5,69,0.00,,,0.00,WeatherDisplay:10.37,2013-03-12 09:27:00,
2013-03-12 04:32:00,22.5,13.8,29.70,WNW,291,3.5,3.5,69,0.00,,,0.00,WeatherDisplay:10.37,2013-03-12 09:32:00,
2013-03-12 04:38:00,22.5,13.8,29.70,WSW,256,3.5,3.5,69,0.00,,,0.00,WeatherDisplay:10.37,2013-03-12 09:38:00,
2013-03-12 04:43:00,22.5,14.1,29.70,SW,232,3.5,3.5,70,0.00,,,0.00,WeatherDisplay:10.37,2013-03-12 09:43:00,
2013-03-12 04:48:00,22.3,14.0,29.73,WNW,284,3.5,3.5,70,0.00,,,0.00,WeatherDisplay:10.37,2013-03-12 09:48:00,
2013-03-12 04:53:00,22.1,13.8,29.73,WSW,256,2.3,2.3,70,0.00,,,0.00,WeatherDisplay:10.37,2013-03-12 09:53:00,
2013-03-12 04:58:00,21.9,13.6,29.73,WSW,252,3.5,3.5,70,0.00,,,0.00,WeatherDisplay:10.37,2013-03-12 09:58:00,
2013-03-12 05:03:00,21.7,13.1,29.73,SW,215,3.6,3.6,69,0.00,,,0.00,WeatherDisplay:10.37,2013-03-12 10:03:00,
2013-03-12 05:09:00,21.4,12.8,29.73,WSW,237,3.5,3.5,69,0.00,,,0.00,WeatherDisplay:10.37,2013-03-12 10:09:00,
2013-03-12 05:14:00,21.0,12.4,29.73,WSW,239,3.5,3.5,69,0.00,,,0.00,WeatherDisplay:10.37,2013-03-12 10:14:00,
2013-03-12 05:19:00,20.7,12.1,29.73,WSW,241,3.5,3.5,69,0.00,,,0.00,WeatherDisplay:10.37,2013-03-12 10:19:00,
2013-03-12 05:24:00,20.3,11.7,29.73,SW,231,3.5,3.5,69,0.00,,,0.00,WeatherDisplay:10.37,2013-03-12 10:24:00,
2013-03-12 05:29:00,20.1,11.6,29.73,SW,220,3.6,3.6,69,0.00,,,0.00,WeatherDisplay:10.37,2013-03-12 10:29:00,
2013-03-12 05:35:00,19.9,11.4,29.73,SSW,207,4.6,4.6,69,0.00,,,0.00,WeatherDisplay:10.37,2013-03-12 10:35:00,
2013-03-12 05:40:00,19.6,11.1,29.73,SW,224,3.5,3.6,69,0.00,,,0.00,WeatherDisplay:10.37,2013-03-12 10:40:00,
2013-03-12 05:45:00,19.2,10.7,29.73,SW,217,3.5,3.5,69,0.00,,,0.00,WeatherDisplay:10.37,2013-03-12 10:45:00,
2013-03-12 05:50:00,18.7,10.2,29.73,SW,217,2.7,2.7,69,0.00,,,0.00,WeatherDisplay:10.37,2013-03-12 10:50:00,
2013-03-12 05:55:00,18.3,9.8,29.73,SW,217,3.5,3.5,69,0.00,,,0.00,WeatherDisplay:10.37,2013-03-12 10:55:00,
2013-03-12 06:00:00,18.0,9.5,29.73,WSW,239,3.5,3.5,69,0.00,,,0.00,WeatherDisplay:10.37,2013-03-12 11:00:00,
2013-03-12 06:06:00,17.6,9.2,29.73,SW,236,3.5,3.5,69,0.00,,,0.00,WeatherDisplay:10.37,2013-03-12 11:06:00,
2013-03-12 06:11:00,17.1,8.6,29.73,WSW,245,3.5,3.6,69,0.00,,,0.00,WeatherDisplay:10.37,2013-03-12 11:11:00,
2013-03-12 06:16:00,16.9,8.8,29.73,SW,222,3.5,3.5,70,0.00,,,0.00,WeatherDisplay:10.37,2013-03-12 11:16:00,
2013-03-12 06:21:00,16.9,8.8,29.73,WSW,245,3.5,3.6,70,0.00,,,0.00,WeatherDisplay:10.37,2013-03-12 11:21:00,
2013-03-12 06:26:00,16.9,8.8,29.73,SW,236,3.5,3.5,70,0.00,,,0.00,WeatherDisplay:10.37,2013-03-12 11:26:00,
2013-03-12 06:32:00,16.7,8.6,29.73,WSW,246,3.5,3.5,70,0.00,,,0.00,WeatherDisplay:10.37,2013-03-12 11:32:00,
2013-03-12 06:37:00,16.5,8.4,29.73,SW,235,3.6,3.6,70,0.00,,,0.00,WeatherDisplay:10.37,2013-03-12 11:37:00,
2013-03-12 06:43:00,16.3,8.3,29.73,SW,236,3.6,3.6,70,0.00,,,0.00,WeatherDisplay:10.37,2013-03-12 11:43:00,
2013-03-12 06:48:00,16.2,8.4,29.73,SW,229,4.6,4.6,71,0.00,,,0.00,WeatherDisplay:10.37,2013-03-12 11:48:00,
2013-03-12 06:53:00,16.0,8.2,29.73,SW,224,3.5,3.6,71,0.00,,,0.00,WeatherDisplay:10.37,2013-03-12 11:53:00,
2013-03-12 06:58:00,16.0,8.2,29.73,WSW,253,4.6,4.6,71,0.00,,,0.00,WeatherDisplay:10.37,2013-03-12 11:58:00,
2013-03-12 07:03:00,16.0,8.2,29.73,SW,235,3.5,3.5,71,0.00,,,0.00,WeatherDisplay:10.37,2013-03-12 12:03:00,
2013-03-12 07:08:00,16.2,8.7,29.73,SW,235,3.5,3.5,72,0.00,,,0.00,WeatherDisplay:10.37,2013-03-12 12:08:00,
2013-03-12 07:13:00,16.3,8.9,29.73,WSW,244,3.5,3.5,72,0.00,,,0.00,WeatherDisplay:10.37,2013-03-12 12:13:00,
2013-03-12 07:18:00,16.5,9.1,29.73,WSW,248,3.5,3.6,72,0.00,,,0.00,WeatherDisplay:10.37,2013-03-12 12:18:00,
2013-03-12 07:24:00,16.7,9.5,29.73,WSW,242,4.6,4.6,73,0.00,,,0.00,WeatherDisplay:10.37,2013-03-12 12:24:00,
2013-03-12 07:29:00,16.9,9.7,29.73,SW,224,3.5,3.5,73,0.00,,,0.00,WeatherDisplay:10.37,2013-03-12 12:29:00,
2013-03-12 07:34:00,17.2,10.1,29.76,WSW,251,3.5,3.5,73,0.00,,,0.00,WeatherDisplay:10.37,2013-03-12 12:34:00,
2013-03-12 07:39:00,17.6,10.7,29.76,WSW,256,3.5,3.5,74,0.00,,,0.00,WeatherDisplay:10.37,2013-03-12 12:39:00,
2013-03-12 07:44:00,17.8,10.9,29.76,WSW,258,3.5,0.0,74,0.00,,,0.00,WeatherDisplay:10.37,2013-03-12 12:44:00,
2013-03-12 07:50:00,18.1,11.2,29.76,WSW,255,3.5,3.5,74,0.00,,,0.00,WeatherDisplay:10.37,2013-03-12 12:50:00,
2013-03-12 07:55:00,18.5,11.6,29.76,WSW,252,4.0,4.0,74,0.00,,,0.00,WeatherDisplay:10.37,2013-03-12 12:55:00,
2013-03-12 08:00:00,18.9,11.9,29.76,WSW,249,3.6,3.6,74,0.00,,,0.00,WeatherDisplay:10.37,2013-03-12 13:00:00,
2013-03-12 08:05:00,19.2,12.3,29.76,West,263,3.5,3.5,74,0.00,,,0.00,WeatherDisplay:10.37,2013-03-12 13:05:00,
2013-03-12 08:10:00,19.4,12.5,29.76,WSW,239,3.5,3.5,74,0.00,,,0.00,WeatherDisplay:10.37,2013-03-12 13:10:00,
2013-03-12 08:15:00,19.8,12.8,29.76,WSW,237,3.5,3.5,74,0.00,,,0.00,WeatherDisplay:10.37,2013-03-12 13:15:00,
2013-03-12 08:20:00,20.1,13.2,29.76,West,263,5.8,5.8,74,0.00,,,0.00,WeatherDisplay:10.37,2013-03-12 13:20:00,
2013-03-12 08:26:00,20.3,13.3,29.76,West,275,3.5,3.5,74,0.00,,,0.00,WeatherDisplay:10.37,2013-03-12 13:26:00,
2013-03-12 08:31:00,20.7,13.7,29.76,West,273,5.4,5.4,74,0.00,,,0.00,WeatherDisplay:10.37,2013-03-12 13:31:00,
2013-03-12 08:36:00,21.2,14.2,29.76,West,259,3.6,3.6,74,0.00,,,0.00,WeatherDisplay:10.37,2013-03-12 13:36:00,
2013-03-12 08:41:00,21.4,14.1,29.76,WNW,289,3.5,3.5,73,0.00,,,0.00,WeatherDisplay:10.37,2013-03-12 13:41:00,
2013-03-12 08:46:00,21.9,14.6,29.76,WNW,295,3.5,3.5,73,0.00,,,0.00,WeatherDisplay:10.37,2013-03-12 13:46:00,
2013-03-12 08:51:00,22.1,14.8,29.76,WSW,258,3.5,3.5,73,0.00,,,0.00,WeatherDisplay:10.37,2013-03-12 13:51:00,
2013-03-12 08:56:00,22.5,15.1,29.76,WNW,289,3.5,3.5,73,0.00,,,0.00,WeatherDisplay:10.37,2013-03-12 13:56:00,
2013-03-12 09:01:00,22.8,15.1,29.76,WSW,256,5.8,5.8,72,0.00,,,0.00,WeatherDisplay:10.37,2013-03-12 14:01:00,
2013-03-12 09:07:00,23.4,15.3,29.76,WSW,247,3.5,3.5,71,0.00,,,0.00,WeatherDisplay:10.37,2013-03-12 14:07:00,
2013-03-12 09:12:00,24.1,15.7,29.76,NW,307,3.5,3.5,70,0.00,,,0.00,WeatherDisplay:10.37,2013-03-12 14:12:00,
2013-03-12 09:17:00,24.6,15.9,29.76,WNW,294,4.6,4.6,69,0.00,,,0.00,WeatherDisplay:10.37,2013-03-12 14:17:00,
2013-03-12 09:22:00,25.0,15.6,29.76,West,263,4.0,4.0,67,0.00,,,0.00,WeatherDisplay:10.37,2013-03-12 14:22:00,
2013-03-12 09:27:00,25.3,15.6,29.76,WSW,257,3.5,3.5,66,0.00,,,0.00,WeatherDisplay:10.37,2013-03-12 14:27:00,
2013-03-12 09:32:00,25.9,15.7,29.76,WNW,293,3.5,3.5,65,0.00,,,0.00,WeatherDisplay:10.37,2013-03-12 14:32:00,
2013-03-12 09:37:00,26.2,15.7,29.76,WSW,242,3.5,3.5,64,0.00,,,0.00,WeatherDisplay:10.37,2013-03-12 14:37:00,
2013-03-12 09:43:00,26.8,15.9,29.76,NNW,339,3.1,3.1,63,0.00,,,0.00,WeatherDisplay:10.37,2013-03-12 14:43:00,
2013-03-12 09:48:00,27.1,16.2,29.76,NNW,345,3.6,4.0,63,0.00,,,0.00,WeatherDisplay:10.37,2013-03-12 14:48:00,
2013-03-12 09:53:00,27.1,15.8,29.76,West,275,5.8,5.8,62,0.00,,,0.00,WeatherDisplay:10.37,2013-03-12 14:53:00,
2013-03-12 09:58:00,27.3,16.0,29.76,NW,312,5.8,5.8,62,0.00,,,0.00,WeatherDisplay:10.37,2013-03-12 14:58:00,
2013-03-12 10:03:00,27.5,15.8,29.76,West,279,3.5,4.0,61,0.00,,,0.00,WeatherDisplay:10.37,2013-03-12 15:03:00,
2013-03-12 10:08:00,27.7,16.0,29.76,WNW,300,3.5,3.5,61,0.00,,,0.00,WeatherDisplay:10.37,2013-03-12 15:08:00,
2013-03-12 10:13:00,27.9,16.1,29.76,WNW,294,5.8,5.8,61,0.00,,,0.00,WeatherDisplay:10.37,2013-03-12 15:13:00,
2013-03-12 10:18:00,27.9,15.8,29.76,WNW,288,5.8,5.8,60,0.00,,,0.00,WeatherDisplay:10.37,2013-03-12 15:18:00,
2013-03-12 10:23:00,28.0,15.5,29.76,NW,318,5.8,5.8,59,0.00,,,0.00,WeatherDisplay:10.37,2013-03-12 15:23:00,
2013-03-12 10:29:00,28.2,15.3,29.76,West,269,6.7,6.7,58,0.00,,,0.00,WeatherDisplay:10.37,2013-03-12 15:29:00,
2013-03-12 10:34:00,28.4,15.1,29.76,NW,304,8.1,8.1,57,0.00,,,0.00,WeatherDisplay:10.37,2013-03-12 15:34:00,
2013-03-12 10:39:00,28.4,15.1,29.76,West,276,5.8,5.8,57,0.00,,,0.00,WeatherDisplay:10.37,2013-03-12 15:39:00,
2013-03-12 10:44:00,28.6,14.9,29.76,WNW,297,5.8,5.8,56,0.00,,,0.00,WeatherDisplay:10.37,2013-03-12 15:44:00,
2013-03-12 10:49:00,28.9,15.2,29.76,WNW,285,5.8,5.8,56,0.00,,,0.00,WeatherDisplay:10.37,2013-03-12 15:49:00,
2013-03-12 10:54:00,29.5,15.3,29.76,NW,312,3.5,3.5,55,0.00,,,0.00,WeatherDisplay:10.37,2013-03-12 15:54:00,
2013-03-12 11:00:00,30.0,15.8,29.76,West,277,4.6,4.6,55,0.00,,,0.00,WeatherDisplay:10.37,2013-03-12 16:00:00,
2013-03-12 11:05:00,30.6,15.9,29.76,WNW,296,5.8,5.8,54,0.00,,,0.00,WeatherDisplay:10.37,2013-03-12 16:05:00,
2013-03-12 11:10:00,30.9,16.2,29.76,WSW,256,5.8,5.8,54,0.00,,,0.00,WeatherDisplay:10.37,2013-03-12 16:10:00,
2013-03-12 11:15:00,31.1,15.9,29.76,WNW,284,5.8,5.8,53,0.00,,,0.00,WeatherDisplay:10.37,2013-03-12 16:15:00,
2013-03-12 11:21:00,31.5,16.3,29.76,SW,235,3.5,4.0,53,0.00,,,0.00,WeatherDisplay:10.37,2013-03-12 16:21:00,
2013-03-12 11:26:00,31.6,16.0,29.76,NW,313,5.8,5.8,52,0.00,,,0.00,WeatherDisplay:10.37,2013-03-12 16:26:00,
2013-03-12 11:31:00,31.6,16.0,29.76,NW,304,5.8,5.8,52,0.00,,,0.00,WeatherDisplay:10.37,2013-03-12 16:31:00,
2013-03-12 11:36:00,31.3,15.7,29.76,West,273,5.8,5.8,52,0.00,,,0.00,WeatherDisplay:10.37,2013-03-12 16:36:00,
2013-03-12 11:41:00,31.6,16.0,29.76,West,268,5.8,5.8,52,0.00,,,0.00,WeatherDisplay:10.37,2013-03-12 16:41:00,
2013-03-12 11:47:00,32.0,15.9,29.76,NW,309,5.8,5.8,51,0.00,,,0.00,WeatherDisplay:10.37,2013-03-12 16:47:00,
2013-03-12 11:52:00,32.2,16.1,29.76,WNW,283,8.1,8.1,51,0.00,,,0.00,WeatherDisplay:10.37,2013-03-12 16:52:00,
2013-03-12 11:57:00,31.8,15.7,29.76,SW,229,6.3,6.3,51,0.00,,,0.00,WeatherDisplay:10.37,2013-03-12 16:57:00,
2013-03-12 12:02:00,31.5,15.4,29.76,WNW,285,10.5,10.5,51,0.00,,,0.00,WeatherDisplay:10.37,2013-03-12 17:02:00,
2013-03-12 12:07:00,31.1,15.1,29.76,WNW,293,6.9,6.9,51,0.00,,,0.00,WeatherDisplay:10.37,2013-03-12 17:07:00,
2013-03-12 12:12:00,31.1,15.1,29.76,WNW,292,5.8,5.8,51,0.00,,,0.00,WeatherDisplay:10.37,2013-03-12 17:12:00,
2013-03-12 12:17:00,31.6,15.6,29.76,West,279,8.1,8.1,51,0.00,,,0.00,WeatherDisplay:10.37,2013-03-12 17:17:00,
2013-03-12 12:22:00,32.5,16.4,29.76,NNW,343,5.8,5.8,51,0.00,,,0.00,WeatherDisplay:10.37,2013-03-12 17:22:00,
2013-03-12 12:27:00,32.7,16.6,29.76,NNW,339,8.1,8.1,51,0.00,,,0.00,WeatherDisplay:10.37,2013-03-12 17:27:00,
2013-03-12 12:33:00,32.5,16.4,29.79,NW,314,5.8,5.8,51,0.00,,,0.00,WeatherDisplay:10.37,2013-03-12 17:33:00,
2013-03-12 12:38:00,32.2,16.1,29.79,WNW,289,5.8,5.8,51,0.00,,,0.00,WeatherDisplay:10.37,2013-03-12 17:38:00,
2013-03-12 12:43:00,31.6,15.6,29.79,WNW,303,8.1,8.1,51,0.00,,,0.00,WeatherDisplay:10.37,2013-03-12 17:43:00,
2013-03-12 12:48:00,31.5,15.4,29.79,NW,306,6.9,6.9,51,0.00,,,0.00,WeatherDisplay:10.37,2013-03-12 17:48:00,
2013-03-12 12:53:00,32.0,15.9,29.79,North,10,4.6,4.6,51,0.00,,,0.00,WeatherDisplay:10.37,2013-03-12 17:53:00,
2013-03-12 12:59:00,31.8,15.7,29.79,WNW,282,3.5,3.6,51,0.00,,,0.00,WeatherDisplay:10.37,2013-03-12 17:59:00,
2013-03-12 13:04:00,31.5,15.4,29.79,WNW,285,5.8,5.8,51,0.00,,,0.00,WeatherDisplay:10.37,2013-03-12 18:04:00,
2013-03-12 13:09:00,31.1,15.1,29.79,NW,322,5.8,5.8,51,0.00,,,0.00,WeatherDisplay:10.37,2013-03-12 18:09:00,
2013-03-12 13:14:00,30.7,14.7,29.79,WNW,288,8.1,8.1,51,0.00,,,0.00,WeatherDisplay:10.37,2013-03-12 18:14:00,
2013-03-12 13:19:00,30.2,14.2,29.79,NW,311,5.8,5.8,51,0.00,,,0.00,WeatherDisplay:10.37,2013-03-12 18:19:00,
2013-03-12 13:24:00,30.4,14.4,29.79,West,280,6.9,6.9,51,0.00,,,0.00,WeatherDisplay:10.37,2013-03-12 18:24:00,
2013-03-12 13:30:00,30.6,14.6,29.79,NW,313,8.1,8.1,51,0.00,,,0.00,WeatherDisplay:10.37,2013-03-12 18:30:00,
2013-03-12 13:35:00,30.7,14.7,29.79,NNW,332,8.1,8.1,51,0.00,,,0.00,WeatherDisplay:10.37,2013-03-12 18:35:00,
2013-03-12 13:40:00,31.3,15.2,29.79,NW,306,6.9,6.9,51,0.00,,,0.00,WeatherDisplay:10.37,2013-03-12 18:40:00,
2013-03-12 13:45:00,32.5,16.4,29.79,NW,311,5.8,5.8,51,0.00,,,0.00,WeatherDisplay:10.37,2013-03-12 18:45:00,
2013-03-12 13:50:00,33.3,17.1,29.79,West,265,9.2,9.2,51,0.00,,,0.00,WeatherDisplay:10.37,2013-03-12 18:50:00,
2013-03-12 13:55:00,33.1,16.9,29.79,WNW,290,4.9,4.9,51,0.00,,,0.00,WeatherDisplay:10.37,2013-03-12 18:55:00,
2013-03-12 14:01:00,33.3,17.1,29.79,WNW,285,9.2,9.2,51,0.00,,,0.00,WeatherDisplay:10.37,2013-03-12 19:01:00,
2013-03-12 14:06:00,33.1,16.9,29.79,NW,306,5.8,6.7,51,0.00,,,0.00,WeatherDisplay:10.37,2013-03-12 19:06:00,
2013-03-12 14:11:00,33.4,17.2,29.79,WNW,303,6.9,6.9,51,0.00,,,0.00,WeatherDisplay:10.37,2013-03-12 19:11:00,
2013-03-12 14:16:00,33.4,17.2,29.79,WNW,303,5.8,5.8,51,0.00,,,0.00,WeatherDisplay:10.37,2013-03-12 19:16:00,
2013-03-12 14:22:00,33.6,17.4,29.79,NNW,346,6.9,6.9,51,0.00,,,0.00,WeatherDisplay:10.37,2013-03-12 19:22:00,
2013-03-12 14:27:00,33.8,17.1,29.79,WNW,296,8.1,8.1,50,0.00,,,0.00,WeatherDisplay:10.37,2013-03-12 19:27:00,
2013-03-12 14:32:00,33.6,16.9,29.79,SSW,202,5.8,5.8,50,0.00,,,0.00,WeatherDisplay:10.37,2013-03-12 19:32:00,
2013-03-12 14:37:00,33.6,16.9,29.79,WNW,298,9.2,9.2,50,0.00,,,0.00,WeatherDisplay:10.37,2013-03-12 19:37:00,
2013-03-12 14:42:00,33.4,16.8,29.79,NW,317,8.1,8.1,50,0.00,,,0.00,WeatherDisplay:10.37,2013-03-12 19:42:00,
2013-03-12 14:47:00,33.3,16.6,29.82,NW,311,5.8,5.8,50,0.00,,,0.00,WeatherDisplay:10.37,2013-03-12 19:47:00,
2013-03-12 14:52:00,33.1,16.4,29.82,NW,312,5.8,5.8,50,0.00,,,0.00,WeatherDisplay:10.37,2013-03-12 19:52:00,
2013-03-12 14:58:00,33.1,16.4,29.82,North,353,8.1,8.1,50,0.00,,,0.00,WeatherDisplay:10.37,2013-03-12 19:58:00,
2013-03-12 15:03:00,33.1,16.4,29.82,North,353,8.1,8.1,50,0.00,,,0.00,WeatherDisplay:10.37,2013-03-12 20:03:00,
2013-03-12 15:08:00,32.7,16.1,29.82,West,272,8.1,8.1,50,0.00,,,0.00,WeatherDisplay:10.37,2013-03-12 20:08:00,
2013-03-12 15:13:00,32.5,15.9,29.82,NW,314,9.2,9.2,50,0.00,,,0.00,WeatherDisplay:10.37,2013-03-12 20:13:00,
2013-03-12 15:18:00,32.4,15.8,29.82,WNW,288,5.8,5.8,50,0.00,,,0.00,WeatherDisplay:10.37,2013-03-12 20:18:00,
2013-03-12 15:23:00,32.2,15.6,29.82,West,272,6.3,6.3,50,0.00,,,0.00,WeatherDisplay:10.37,2013-03-12 20:23:00,
2013-03-12 15:28:00,32.2,15.6,29.82,WNW,290,8.1,8.1,50,0.00,,,0.00,WeatherDisplay:10.37,2013-03-12 20:28:00,
2013-03-12 15:34:00,31.5,14.9,29.82,WNW,290,8.1,8.1,50,0.00,,,0.00,WeatherDisplay:10.37,2013-03-12 20:34:00,
2013-03-12 15:39:00,31.1,14.6,29.82,NW,311,5.8,5.8,50,0.00,,,0.00,WeatherDisplay:10.37,2013-03-12 20:39:00,
2013-03-12 15:44:00,31.1,14.6,29.82,WNW,303,8.1,8.1,50,0.00,,,0.00,WeatherDisplay:10.37,2013-03-12 20:44:00,
2013-03-12 15:49:00,31.5,14.9,29.82,NW,310,5.8,5.8,50,0.00,,,0.00,WeatherDisplay:10.37,2013-03-12 20:49:00,
2013-03-12 15:54:00,31.6,15.1,29.82,West,280,8.1,8.1,50,0.00,,,0.00,WeatherDisplay:10.37,2013-03-12 20:54:00,
2013-03-12 15:59:00,31.6,15.1,29.82,WNW,303,8.3,8.3,50,0.00,,,0.00,WeatherDisplay:10.37,2013-03-12 20:59:00,
2013-03-12 16:05:00,31.6,15.1,29.82,WNW,301,5.8,6.3,50,0.00,,,0.00,WeatherDisplay:10.37,2013-03-12 21:05:00,
2013-03-12 16:10:00,31.5,14.9,29.82,NW,312,5.8,5.8,50,0.00,,,0.00,WeatherDisplay:10.37,2013-03-12 21:10:00,
2013-03-12 16:15:00,31.5,14.9,29.82,West,278,5.8,5.8,50,0.00,,,0.00,WeatherDisplay:10.37,2013-03-12 21:15:00,
2013-03-12 16:20:00,31.5,14.9,29.82,West,277,5.8,5.8,50,0.00,,,0.00,WeatherDisplay:10.37,2013-03-12 21:20:00,
2013-03-12 16:25:00,31.5,14.0,29.82,NW,311,5.8,5.8,48,0.00,,,0.00,WeatherDisplay:10.37,2013-03-12 21:25:00,
2013-03-12 16:31:00,31.3,13.8,29.82,NNW,330,5.8,5.8,48,0.00,,,0.00,WeatherDisplay:10.37,2013-03-12 21:31:00,
2013-03-12 16:36:00,31.1,13.7,29.85,NW,326,8.1,8.1,48,0.00,,,0.00,WeatherDisplay:10.37,2013-03-12 21:36:00,
2013-03-12 16:41:00,31.1,13.7,29.85,WNW,282,5.4,5.4,48,0.00,,,0.00,WeatherDisplay:10.37,2013-03-12 21:41:00,
2013-03-12 16:46:00,31.1,13.7,29.85,WNW,291,5.8,5.8,48,0.00,,,0.00,WeatherDisplay:10.37,2013-03-12 21:46:00,
2013-03-12 16:51:00,31.1,13.7,29.85,NW,309,5.8,5.8,48,0.00,,,0.00,WeatherDisplay:10.37,2013-03-12 21:51:00,
2013-03-12 16:56:00,31.1,13.7,29.85,North,353,5.8,5.8,48,0.00,,,0.00,WeatherDisplay:10.37,2013-03-12 21:56:00,
2013-03-12 17:01:00,31.3,13.8,29.85,NW,326,6.3,6.3,48,0.00,,,0.00,WeatherDisplay:10.37,2013-03-12 22:01:00,
2013-03-12 17:06:00,31.1,13.7,29.85,WSW,253,3.6,3.6,48,0.00,,,0.00,WeatherDisplay:10.37,2013-03-12 22:06:00,
2013-03-12 17:11:00,31.1,13.7,29.85,NW,314,5.8,5.8,48,0.00,,,0.00,WeatherDisplay:10.37,2013-03-12 22:11:00,
2013-03-12 17:17:00,30.6,13.2,29.85,WNW,299,4.6,4.6,48,0.00,,,0.00,WeatherDisplay:10.37,2013-03-12 22:17:00,
2013-03-12 17:22:00,30.2,12.8,29.85,NW,307,5.8,5.8,48,0.00,,,0.00,WeatherDisplay:10.37,2013-03-12 22:22:00,
2013-03-12 17:27:00,30.0,12.7,29.85,NNW,343,4.6,4.6,48,0.00,,,0.00,WeatherDisplay:10.37,2013-03-12 22:27:00,
2013-03-12 17:32:00,29.8,12.5,29.85,North,357,5.8,5.8,48,0.00,,,0.00,WeatherDisplay:10.37,2013-03-12 22:32:00,
2013-03-12 17:38:00,29.5,12.2,29.85,NNW,327,7.2,7.2,48,0.00,,,0.00,WeatherDisplay:10.37,2013-03-12 22:38:00,
2013-03-12 17:43:00,29.1,11.8,29.85,West,273,3.5,3.5,48,0.00,,,0.00,WeatherDisplay:10.37,2013-03-12 22:43:00,
2013-03-12 17:48:00,28.9,11.7,29.85,NW,309,4.6,4.6,48,0.00,,,0.00,WeatherDisplay:10.37,2013-03-12 22:48:00,
2013-03-12 17:53:00,28.6,11.3,29.85,NNW,333,5.8,5.8,48,0.00,,,0.00,WeatherDisplay:10.37,2013-03-12 22:53:00,
2013-03-12 17:58:00,28.4,11.2,29.85,WNW,288,5.8,5.8,48,0.00,,,0.00,WeatherDisplay:10.37,2013-03-12 22:58:00,
2013-03-12 18:04:00,28.2,11.0,29.88,NNW,346,5.8,5.8,48,0.00,,,0.00,WeatherDisplay:10.37,2013-03-12 23:04:00,
2013-03-12 18:09:00,27.9,10.7,29.88,WNW,284,5.8,5.8,48,0.00,,,0.00,WeatherDisplay:10.37,2013-03-12 23:09:00,
2013-03-12 18:14:00,27.9,10.7,29.88,WNW,290,3.5,3.5,48,0.00,,,0.00,WeatherDisplay:10.37,2013-03-12 23:14:00,
2013-03-12 18:19:00,27.9,10.7,29.88,NW,309,5.8,5.8,48,0.00,,,0.00,WeatherDisplay:10.37,2013-03-12 23:19:00,
2013-03-12 18:24:00,27.7,10.5,29.88,WNW,294,5.8,5.8,48,0.00,,,0.00,WeatherDisplay:10.37,2013-03-12 23:24:00,
2013-03-12 18:30:00,27.5,10.4,29.88,NW,323,3.5,3.5,48,0.00,,,0.00,WeatherDisplay:10.37,2013-03-12 23:30:00,
2013-03-12 18:35:00,27.3,10.2,29.88,North,0,5.8,5.8,48,0.00,,,0.00,WeatherDisplay:10.37,2013-03-12 23:35:00,
2013-03-12 18:40:00,27.1,10.0,29.88,NE,34,8.1,8.1,48,0.00,,,0.00,WeatherDisplay:10.37,2013-03-12 23:40:00,
2013-03-12 18:45:00,27.0,9.9,29.88,NW,308,5.8,5.8,48,0.00,,,0.00,WeatherDisplay:10.37,2013-03-12 23:45:00,
2013-03-12 18:50:00,27.0,9.9,29.88,NNW,337,5.8,5.8,48,0.00,,,0.00,WeatherDisplay:10.37,2013-03-12 23:50:00,
2013-03-12 18:55:00,26.8,9.7,29.88,NW,306,10.5,10.5,48,0.00,,,0.00,WeatherDisplay:10.37,2013-03-12 23:55:00,
2013-03-12 19:00:00,26.6,10.0,29.88,NNW,332,3.5,3.6,49,0.00,,,0.00,WeatherDisplay:10.37,2013-03-13 00:00:00,
2013-03-12 19:05:00,26.4,9.8,29.88,NNW,330,8.1,8.1,49,0.00,,,0.00,WeatherDisplay:10.37,2013-03-13 00:05:00,
2013-03-12 19:10:00,26.2,10.5,29.88,NW,313,5.8,5.8,51,0.00,,,0.00,WeatherDisplay:10.37,2013-03-13 00:10:00,
2013-03-12 19:15:00,26.1,10.4,29.88,NNW,332,8.1,8.1,51,0.00,,,0.00,WeatherDisplay:10.37,2013-03-13 00:15:00,
2013-03-12 19:21:00,25.9,10.2,29.91,NNW,327,5.8,5.8,51,0.00,,,0.00,WeatherDisplay:10.37,2013-03-13 00:21:00,
2013-03-12 19:26:00,25.7,10.0,29.91,NW,310,8.1,8.1,51,0.00,,,0.00,WeatherDisplay:10.37,2013-03-13 00:26:00,
2013-03-12 19:31:00,25.5,9.9,29.91,NW,308,8.1,8.1,51,0.00,,,0.00,WeatherDisplay:10.37,2013-03-13 00:31:00,
2013-03-12 19:36:00,25.5,9.9,29.91,NNW,332,10.4,10.4,51,0.00,,,0.00,WeatherDisplay:10.37,2013-03-13 00:36:00,
2013-03-12 19:41:00,25.3,9.7,29.91,NNW,341,5.8,5.8,51,0.00,,,0.00,WeatherDisplay:10.37,2013-03-13 00:41:00,
2013-03-12 19:46:00,25.2,10.0,29.91,NNW,333,9.2,9.2,52,0.00,,,0.00,WeatherDisplay:10.37,2013-03-13 00:46:00,
2013-03-12 19:51:00,25.2,10.0,29.91,NW,320,8.0,8.0,52,0.00,,,0.00,WeatherDisplay:10.37,2013-03-13 00:51:00,
2013-03-12 19:56:00,25.0,9.8,29.91,NNW,343,11.5,11.5,52,0.00,,,0.00,WeatherDisplay:10.37,2013-03-13 00:56:00,
2013-03-12 20:01:00,24.8,10.1,29.91,North,350,9.2,9.2,53,0.00,,,0.00,WeatherDisplay:10.37,2013-03-13 01:01:00,
2013-03-12 20:06:00,24.6,9.9,29.94,NW,323,5.8,5.8,53,0.00,,,0.00,WeatherDisplay:10.37,2013-03-13 01:06:00,
2013-03-12 20:12:00,24.3,10.0,29.94,North,357,5.8,5.8,54,0.00,,,0.00,WeatherDisplay:10.37,2013-03-13 01:12:00,
2013-03-12 20:17:00,24.1,10.2,29.94,NNW,340,8.0,8.0,55,0.00,,,0.00,WeatherDisplay:10.37,2013-03-13 01:17:00,
2013-03-12 20:22:00,23.9,10.1,29.94,WNW,303,5.8,5.8,55,0.00,,,0.00,WeatherDisplay:10.37,2013-03-13 01:22:00,
2013-03-12 20:27:00,23.7,10.3,29.94,NNE,18,3.5,3.6,56,0.00,,,0.00,WeatherDisplay:10.37,2013-03-13 01:27:00,
2013-03-12 20:33:00,23.7,10.7,29.94,NNE,29,10.9,10.9,57,0.00,,,0.00,WeatherDisplay:10.37,2013-03-13 01:33:00,
2013-03-12 20:38:00,23.4,10.4,29.94,SSE,160,8.1,8.1,57,0.00,,,0.00,WeatherDisplay:10.37,2013-03-13 01:38:00,
2013-03-12 20:43:00,23.0,10.4,29.94,NNE,27,8.1,8.1,58,0.00,,,0.00,WeatherDisplay:10.37,2013-03-13 01:43:00,
2013-03-12 20:48:00,22.8,10.2,29.97,NNW,334,5.8,5.8,58,0.00,,,0.00,WeatherDisplay:10.37,2013-03-13 01:48:00,
2013-03-12 20:53:00,22.6,9.7,29.97,NW,324,9.2,9.2,57,0.00,,,0.00,WeatherDisplay:10.37,2013-03-13 01:53:00,
2013-03-12 20:58:00,22.5,9.1,29.97,North,353,4.6,4.6,56,0.00,,,0.00,WeatherDisplay:10.37,2013-03-13 01:58:00,
2013-03-12 21:03:00,22.3,8.9,29.97,NNW,339,8.1,8.1,56,0.00,,,0.00,WeatherDisplay:10.37,2013-03-13 02:03:00,
2013-03-12 21:09:00,22.3,8.9,29.97,NE,44,8.1,8.1,56,0.00,,,0.00,WeatherDisplay:10.37,2013-03-13 02:09:00,
2013-03-12 21:14:00,22.1,8.4,29.97,North,0,4.6,4.6,55,0.00,,,0.00,WeatherDisplay:10.37,2013-03-13 02:14:00,
2013-03-12 21:19:00,21.9,8.2,29.97,NE,42,5.8,5.8,55,0.00,,,0.00,WeatherDisplay:10.37,2013-03-13 02:19:00,
2013-03-12 21:24:00,21.9,8.2,29.97,ENE,62,5.8,5.8,55,0.00,,,0.00,WeatherDisplay:10.37,2013-03-13 02:24:00,
2013-03-12 21:29:00,21.9,7.8,29.97,NNE,19,8.1,8.1,54,0.00,,,0.00,WeatherDisplay:10.37,2013-03-13 02:29:00,
2013-03-12 21:34:00,21.7,7.6,29.97,ENE,70,3.5,4.0,54,0.00,,,0.00,WeatherDisplay:10.37,2013-03-13 02:34:00,
2013-03-12 21:40:00,21.6,7.5,29.97,NNW,344,5.8,5.8,54,0.00,,,0.00,WeatherDisplay:10.37,2013-03-13 02:40:00,
2013-03-12 21:45:00,21.4,7.3,29.97,North,353,3.5,0.0,54,0.00,,,0.00,WeatherDisplay:10.37,2013-03-13 02:45:00,
2013-03-12 21:50:00,21.2,7.1,29.97,NW,324,6.3,6.3,54,0.00,,,0.00,WeatherDisplay:10.37,2013-03-13 02:50:00,
2013-03-12 21:55:00,21.2,7.1,29.97,NW,317,5.8,5.8,54,0.00,,,0.00,WeatherDisplay:10.37,2013-03-13 02:55:00,
2013-03-12 22:00:00,21.0,7.4,29.97,NW,319,3.6,3.6,55,0.00,,,0.00,WeatherDisplay:10.37,2013-03-13 03:00:00,
2013-03-12 22:05:00,21.0,7.4,29.97,NNW,333,8.1,8.1,55,0.00,,,0.00,WeatherDisplay:10.37,2013-03-13 03:05:00,
2013-03-12 22:10:00,20.8,7.2,29.97,NW,323,3.6,3.6,55,0.00,,,0.00,WeatherDisplay:10.37,2013-03-13 03:10:00,
2013-03-12 22:15:00,20.8,7.2,29.97,West,272,5.8,5.8,55,0.00,,,0.00,WeatherDisplay:10.37,2013-03-13 03:15:00,
2013-03-12 22:20:00,20.7,7.4,30.00,NNW,342,4.6,4.6,56,0.00,,,0.00,WeatherDisplay:10.37,2013-03-13 03:20:00,
2013-03-12 22:26:00,20.7,7.4,30.00,NW,319,4.6,4.6,56,0.00,,,0.00,WeatherDisplay:10.37,2013-03-13 03:26:00,
2013-03-12 22:31:00,20.7,7.8,30.00,NNW,332,3.5,3.5,57,0.00,,,0.00,WeatherDisplay:10.37,2013-03-13 03:31:00,
2013-03-12 22:36:00,20.5,7.6,30.00,WNW,302,3.5,3.5,57,0.00,,,0.00,WeatherDisplay:10.37,2013-03-13 03:36:00,
2013-03-12 22:41:00,20.3,7.5,30.00,NNW,328,3.5,3.6,57,0.00,,,0.00,WeatherDisplay:10.37,2013-03-13 03:41:00,
2013-03-12 22:46:00,20.3,7.9,30.00,NW,305,4.6,4.6,58,0.00,,,0.00,WeatherDisplay:10.37,2013-03-13 03:46:00,
2013-03-12 22:51:00,20.1,7.7,30.00,WNW,291,5.8,5.8,58,0.00,,,0.00,WeatherDisplay:10.37,2013-03-13 03:51:00,
2013-03-12 22:56:00,20.1,7.7,30.00,NNW,328,3.5,3.5,58,0.00,,,0.00,WeatherDisplay:10.37,2013-03-13 03:56:00,
2013-03-12 23:00:00,19.9,7.5,30.00,NNW,346,3.5,3.5,58,0.00,,,0.00,WeatherDisplay:10.37,2013-03-13 04:00:00,
2013-03-12 23:01:00,19.9,7.5,30.00,WNW,297,4.0,4.0,58,0.00,,,0.00,WeatherDisplay:10.37,2013-03-13 04:01:00,
2013-03-12 23:04:00,19.9,7.9,30.00,NW,323,3.5,3.5,59,0.00,,,0.00,WeatherDisplay:10.37,2013-03-13 04:04:00,
2013-03-12 23:09:00,19.8,7.7,30.00,NNW,333,3.6,3.6,59,0.00,,,0.00,WeatherDisplay:10.37,2013-03-13 04:09:00,
2013-03-12 23:14:00,19.6,7.6,30.00,WNW,289,3.5,3.5,59,0.00,,,0.00,WeatherDisplay:10.37,2013-03-13 04:14:00,
2013-03-12 23:20:00,19.6,7.6,30.00,NW,320,5.8,5.8,59,0.00,,,0.00,WeatherDisplay:10.37,2013-03-13 04:20:00,
2013-03-12 23:25:00,19.4,7.4,30.00,NW,312,5.8,5.8,59,0.00,,,0.00,WeatherDisplay:10.37,2013-03-13 04:25:00,
2013-03-12 23:30:00,19.4,7.4,30.00,NNW,332,3.5,3.5,59,0.00,,,0.00,WeatherDisplay:10.37,2013-03-13 04:30:00,
2013-03-12 23:36:00,19.2,7.2,30.00,NNW,337,3.5,3.5,59,0.00,,,0.00,WeatherDisplay:10.37,2013-03-13 04:36:00,
2013-03-12 23:41:00,19.2,7.2,30.00,WNW,300,3.5,3.5,59,0.00,,,0.00,WeatherDisplay:10.37,2013-03-13 04:41:00,
2013-03-12 23:46:00,19.2,7.6,30.00,NNW,331,3.6,3.6,60,0.00,,,0.00,WeatherDisplay:10.37,2013-03-13 04:46:00,
2013-03-12 23:51:00,19.2,7.6,30.00,North,353,3.5,3.5,60,0.00,,,0.00,WeatherDisplay:10.37,2013-03-13 04:51:00,
2013-03-12 23:56:00,19.0,7.4,30.00,NNW,339,3.5,3.5,60,0.00,,,0.00,WeatherDisplay:10.37,2013-03-13 04:56:00,